Find DirecTV 15

NORAD ID: 40663 Int'l Des: 2015-026 Owner: DTVA Country: US operational
HEOCIRCULARGSOGEO

Current View

Loading 3D Globe...

About DirecTV 15

DirecTV 15 (NORAD 40663) is a satellite launched May 27, 2015 by DTVA of US. It operates in HEO, CIRCULAR, GSO, GEO orbit with a mass of 6205.00 kg.

Upcoming Passes

Passes for default location (London). Set your location on the main map for personalized predictions.

Altitude History

Loading altitude history...

Two-Line Element Set

1 40663U 15026A 26194.51503030 -.00000106 00000-0 00000+0 0 9999
2 40663 0.0179 71.5022 0000066 256.9146 45.5133 1.00272384 40721
Epoch: Jul 13, 2026 • Age: 25 hours

Current Status

Altitude 35785.8 km
Apogee / Perigee N/A
Velocity 3.07 km/s
Sub-Earth Point -0.02°S, 102.86°W
Launch Date May 27, 2015
Age 11.1 years
Type other

Technical Details

Classification Payload
Mass 6205.00 kg
Dry Mass 3381.00 kg
Total Mass 6205.00 kg
Length 6.20 m
Diameter 2.60 m
Span 45.00 m
Shape Box + 2 pan
Manufacturer ADST
Bus Type Eurostar 3000
Phase Status Renamed
Owner/State DTVA/US

Most Searched